Wind_Speed
45 45 45 45 44 43 42 41 41 42 41 41 42 43 43 43 42 42 42 42 42 43 44 44 44 44 45 45 45 46 47 48 48 49 49 49 50 50
45 45 45 46 45 44 44 43 43 42 43 43 43 43 43 43 43 43 44 44 45 45 46 46 46 46 46 46 47 48 49 50 50 50 51 51 52 52
46 46 46 45 46 47 45 44 44 44 44 44 44 44 44 44 44 45 45 46 46 47 47 48 48 49 49 49 50 50 51 52 53 54 54 54 55 55
47 48 49 48 48 48 48 47 46 46 45 45 45 46 46 46 46 46 47 47 48 49 50 50 51 51 52 53 53 54 54 55 55 56 56 56 57 57
48 49 50 50 49 49 50 50 48 47 47 47 47 47 48 48 49 49 49 50 50 51 52 52 52 53 54 55 56 56 57 57 58 58 58 57 57 57
50 50 50 51 49 49 49 50 49 49 48 48 48 48 48 49 50 51 51 52 52 53 54 55 55 55 55 56 57 57 58 58 58 58 58 57 56 56
50 50 50 51 50 50 49 50 50 50 50 49 49 50 51 51 51 52 53 53 54 55 55 56 56 56 56 57 57 57 57 57 57 57 57 56 56 56
51 51 50 50 50 50 50 50 50 50 51 51 51 51 52 53 53 54 54 55 55 55 55 55 56 56 56 57 57 57 57 57 57 57 56 55 55 56
51 51 50 50 50 49 50 50 51 52 52 52 52 53 54 54 55 56 56 57 56 56 56 55 55 55 56 56 56 57 56 57 57 56 56 56 56 56
51 51 50 50 50 51 51 52 52 52 53 54 55 55 56 57 57 57 58 57 57 56 56 56 56 55 54 55 56 56 56 57 57 57 57 57 57 57
50 50 50 51 51 52 52 52 53 54 55 56 57 57 58 58 58 58 57 58 57 56 57 57 57 56 55 56 56 57 57 57 57 58 58 58 57 57
49 49 50 51 51 52 53 54 54 55 56 56 57 58 57 57 57 57 58 58 58 57 57 58 57 57 56 55 56 57 57 57 58 58 57 56 55 54
48 49 50 51 51 52 53 54 55 56 56 57 57 57 57 57 57 57 58 58 59 59 59 59 58 57 57 56 56 56 57 57 56 55 54 53 52 51
49 49 50 50 51 52 54 54 55 55 56 56 57 57 57 57 57 57 57 58 58 59 59 59 58 58 57 57 56 56 56 55 54 52 50 50 49 49
49 50 50 51 51 52 53 54 54 55 55 55 56 56 55 55 56 56 56 56 56 57 57 57 57 57 57 57 56 54 53 52 51 50 48 48 48 47
50 50 51 51 51 52 52 52 53 53 54 54 54 54 54 54 54 54 54 54 53 53 53 54 54 54 54 54 54 52 52 51 49 48 47 47 47 46
50 50 51 50 51 51 51 51 51 51 52 52 52 52 52 52 52 52 52 52 52 52 51 52 52 52 51 50 50 50 49 48 47 46 46 45 45 46
48 49 49 48 48 49 49 50 50 50 50 50 50 50 50 50 50 50 50 51 50 50 49 49 48 47 47 47 47 47 46 45 43 44 44 43 43 43
46 46 47 47 47 48 48 49 49 49 49 49 48 48 49 48 48 48 48 47 46 46 46 46 45 45 45 44 43 44 43 41 41 41 41 41 41 41
44 45 45 46 46 47 47 47 47 47 47 47 47 47 47 46 46 45 44 44 43 43 43 43 43 43 43 42 40 40 40 39 39 38 39 39 38 38
42 43 44 44 45 46 46 46 46 46 46 46 46 46 45 44 43 43 42 41 41 41 41 41 41 41 40 39 38 36 36 37 37 38 37 37 36 36
40 41 42 43 44 45 45 45 45 46 45 45 44 44 43 42 41 41 41 40 40 40 40 39 40 39 38 38 36 34 33 35 36 36 36 37 36 35
39 40 40 41 41 42 43 43 44 45 44 43 42 41 41 41 40 40 40 40 39 39 39 39 38 38 38 37 35 34 33 34 35 35 35 36 36 35
Wind_Direction
248 250 253 254 255 257 258 260 262 263 264 266 267 269 271 272 274 275 276 277 277 277 278 279 281 282 283 283 284 285 285 285 285 286 286 286 286 286
249 251 253 254 255 256 257 260 262 264 264 266 267 270 271 273 274 276 278 279 279 279 278 279 280 281 282 282 283 284 285 284 285 286 286 286 286 287
250 252 253 254 255 256 256 259 261 263 264 265 268 269 270 273 274 276 278 278 279 279 279 279 280 280 281 282 283 283 285 285 284 285 286 287 287 287
251 251 252 253 255 255 256 258 261 263 264 265 268 269 270 272 274 275 277 279 279 279 281 280 280 281 281 282 282 283 284 284 285 285 286 286 287 287
251 252 253 253 254 256 257 258 261 263 265 267 268 270 270 272 274 275 278 279 280 280 281 281 281 281 281 282 282 282 283 284 285 286 286 286 286 286
251 251 252 253 255 256 257 260 262 264 267 267 268 270 271 274 275 276 278 279 280 280 281 280 280 281 281 282 282 283 284 285 286 286 287 287 286 286
251 251 252 253 255 256 258 260 263 265 267 268 269 271 273 275 277 278 278 279 279 280 280 281 280 280 280 281 282 283 284 285 286 286 287 287 286 287
252 251 252 254 255 257 259 261 263 265 267 269 271 273 275 277 278 279 280 280 280 281 281 281 281 281 281 282 283 284 285 285 285 286 286 287 287 287
252 252 253 255 256 257 259 261 263 266 269 271 273 275 276 278 279 280 281 281 282 282 282 282 281 281 282 283 283 285 285 286 287 287 287 288 288 288
252 253 254 255 256 258 260 263 265 268 270 272 274 276 277 279 279 280 280 281 282 282 283 283 282 282 282 282 284 285 285 286 287 287 287 288 288 288
253 254 255 257 259 261 263 265 267 270 272 274 275 277 278 279 280 280 281 282 282 283 283 284 284 283 282 283 284 284 285 286 286 287 288 288 288 288
254 256 258 259 261 263 265 266 268 271 272 274 276 277 278 278 279 279 280 282 283 283 284 284 284 283 283 282 283 283 284 285 286 287 288 288 288 288
256 257 259 261 262 264 266 268 269 271 272 274 275 276 277 278 279 280 280 282 283 283 284 284 284 284 284 284 283 284 285 285 286 286 286 287 286 287
258 259 261 263 264 266 268 269 270 272 273 274 275 276 277 278 279 280 281 282 283 283 284 284 284 284 285 285 285 285 285 286 286 285 285 285 285 286
260 261 263 265 267 268 269 270 271 272 273 274 275 277 278 279 280 280 281 282 283 283 284 284 285 285 285 285 285 284 284 285 285 284 284 283 283 284
261 263 265 266 268 269 270 271 273 274 275 275 276 277 278 279 280 281 281 282 282 283 285 286 286 286 286 286 286 285 284 284 283 282 282 283 283 284
262 264 265 266 268 269 271 273 274 275 276 277 277 279 280 280 281 282 282 283 283 283 284 285 286 286 286 287 286 286 285 284 284 283 282 283 283 284
263 264 265 267 269 270 271 273 274 276 277 278 279 280 281 282 282 282 283 284 284 284 284 285 285 285 286 287 287 287 286 286 285 284 284 284 285 286
263 264 265 267 269 271 272 274 275 276 277 279 280 282 283 283 282 283 283 283 283 284 284 285 285 286 286 286 285 286 287 286 285 285 285 287 287 286
264 265 267 268 270 271 273 275 275 277 278 279 281 282 282 282 281 282 282 282 282 283 284 285 286 287 287 287 285 285 286 286 286 286 287 288 287 286
266 267 268 270 271 272 273 275 276 277 279 280 281 281 281 280 280 280 280 281 282 283 284 284 286 287 287 287 287 286 285 286 287 288 288 288 287 286
268 269 269 270 272 273 274 275 275 277 278 279 279 279 279 279 279 279 280 282 283 284 284 285 285 286 287 288 287 286 285 286 288 289 291 291 290 289
271 271 271 272 273 274 275 276 276 276 277 278 278 278 278 278 279 280 281 281 283 283 284 284 284 286 288 288 287 285 285 286 287 288 290 291 292 292
Height
5734 5737 5740 5742 5744 5746 5748 5750 5752 5754 5755 5756 5756 5757 5757 5757 5757 5757 5756 5756 5755 5754 5753 5752 5751 5750 5749 5748 5747 5745 5744 5742 5740 5739 5737 5735 5733 5730
5724 5727 5729 5731 5733 5735 5738 5740 5742 5743 5745 5746 5747 5747 5747 5746 5746 5746 5746 5745 5744 5743 5742 5741 5740 5739 5738 5737 5735 5734 5732 5730 5728 5726 5724 5722 5720 5717
5713 5716 5718 5720 5723 5725 5727 5729 5731 5732 5734 5736 5736 5736 5736 5736 5735 5735 5734 5734 5733 5732 5730 5729 5728 5727 5726 5724 5723 5721 5719 5717 5714 5712 5710 5707 5705 5703
5701 5705 5708 5710 5712 5715 5717 5718 5720 5721 5723 5724 5725 5725 5725 5724 5724 5724 5723 5722 5721 5719 5718 5717 5715 5714 5712 5711 5709 5707 5705 5702 5700 5697 5695 5692 5690 5687
5690 5693 5696 5699 5701 5703 5705 5707 5709 5710 5711 5712 5713 5713 5713 5713 5713 5712 5711 5710 5708 5706 5705 5703 5702 5700 5697 5696 5694 5691 5689 5687 5684 5682 5679 5676 5673 5670
5678 5681 5684 5687 5690 5692 5694 5696 5697 5698 5699 5700 5701 5701 5700 5700 5700 5699 5698 5697 5695 5693 5691 5689 5687 5685 5682 5680 5678 5676 5673 5671 5668 5665 5662 5660 5657 5654
5666 5669 5672 5675 5678 5680 5682 5684 5685 5686 5687 5687 5688 5688 5688 5687 5686 5685 5684 5683 5681 5679 5677 5675 5672 5671 5667 5665 5662 5660 5657 5655 5652 5649 5646 5643 5640 5637
5655 5658 5661 5663 5666 5668 5670 5671 5672 5673 5674 5675 5675 5675 5674 5673 5671 5670 5668 5668 5667 5665 5662 5660 5657 5655 5652 5649 5646 5643 5641 5638 5636 5633 5630 5627 5624 5621
5643 5646 5648 5651 5653 5655 5657 5658 5659 5660 5661 5661 5661 5660 5660 5658 5656 5655 5653 5651 5650 5648 5645 5645 5642 5640 5637 5633 5630 5627 5624 5621 5619 5616 5614 5611 5608 5604
5631 5634 5636 5638 5640 5642 5644 5645 5646 5646 5647 5647 5646 5645 5644 5642 5640 5639 5637 5636 5634 5631 5628 5628 5627 5624 5621 5617 5613 5610 5607 5605 5602 5599 5597 5594 5591 5587
5618 5620 5622 5625 5627 5628 5630 5631 5632 5632 5631 5631 5630 5629 5628 5626 5624 5622 5621 5619 5618 5617 5613 5611 5610 5608 5606 5603 5598 5594 5591 5588 5586 5583 5580 5576 5573 5570
5605 5607 5609 5611 5612 5613 5614 5616 5617 5617 5617 5616 5615 5613 5612 5610 5608 5606 5604 5602 5601 5600 5597 5594 5592 5589 5589 5589 5584 5580 5576 5572 5569 5566 5562 5559 5555 5553
5592 5594 5596 5597 5598 5599 5599 5600 5601 5601 5601 5600 5599 5598 5596 5594 5592 5590 5587 5585 5584 5582 5579 5576 5574 5571 5569 5570 5569 5564 5559 5556 5553 5549 5545 5542 5539 5536
5578 5580 5582 5583 5584 5585 5585 5585 5585 5585 5584 5584 5583 5582 5581 5579 5576 5574 5571 5569 5566 5564 5562 5558 5557 5554 5552 5550 5550 5548 5543 5539 5536 5533 5530 5527 5524 5522
5564 5566 5568 5569 5569 5570 5570 5569 5569 5569 5568 5568 5567 5566 5564 5562 5560 5558 5555 5553 5550 5547 5544 5542 5539 5537 5534 5532 5531 5529 5527 5525 5521 5518 5515 5512 5510 5508
5550 5552 5553 5554 5554 5555 5555 5554 5554 5553 5552 5552 5551 5550 5548 5546 5544 5542 5540 5537 5535 5533 5529 5526 5523 5520 5518 5515 5513 5512 5509 5507 5506 5503 5500 5499 5496 5494
5535 5537 5538 5539 5540 5540 5540 5540 5539 5538 5538 5537 5536 5534 5533 5531 5529 5526 5524 5522 5520 5518 5516 5512 5508 5505 5503 5500 5498 5496 5493 5492 5490 5488 5487 5485 5483 5480
5521 5523 5524 5525 5526 5526 5526 5526 5525 5524 5523 5522 5521 5519 5518 5516 5514 5512 5509 5507 5505 5504 5501 5498 5496 5493 5491 5488 5484 5481 5480 5477 5476 5474 5472 5471 5470 5468
5508 5509 5511 5511 5512 5512 5512 5512 5511 5510 5509 5508 5507 5505 5503 5502 5500 5498 5496 5494 5492 5490 5487 5485 5482 5479 5478 5477 5474 5469 5466 5465 5463 5462 5460 5458 5457 5456
5495 5496 5497 5498 5498 5498 5498 5498 5497 5496 5495 5494 5493 5491 5489 5488 5486 5485 5482 5480 5479 5477 5474 5472 5469 5467 5465 5463 5462 5459 5454 5452 5451 5450 5449 5447 5445 5443
5483 5483 5484 5484 5485 5485 5484 5484 5484 5483 5482 5481 5480 5478 5476 5475 5473 5472 5470 5468 5466 5464 5462 5460 5458 5455 5452 5450 5449 5448 5445 5441 5439 5437 5436 5435 5434 5433
5471 5471 5471 5471 5471 5471 5470 5470 5470 5469 5468 5468 5466 5465 5463 5462 5461 5459 5458 5456 5454 5452 5451 5449 5446 5444 5442 5440 5438 5437 5435 5433 5430 5427 5424 5423 5421 5421
5459 5459 5458 5458 5458 5457 5457 5456 5456 5456 5455 5454 5453 5452 5451 5450 5449 5448 5446 5445 5443 5441 5440 5438 5436 5433 5431 5429 5428 5427 5425 5423 5421 5419 5417 5412 5410 5409